FW4331 Weather Reports


Display with metric or nautical units.
time (UTC)temp
F
wind
direction
speed
MPH
gust
MPH
rain 1hr
in
rain 24hr
in
rain mn
in
humidity
%
barometer
mb
20260505123026 63 290 2.0 5.0 0.00 0.00 0.00 44 1011.1
20260505121521 62 274 1.0 7.0 0.00 0.00 0.00 46 1011.2
20260505120018 61 259 1.0 5.0 0.00 0.00 0.00 46 1011.1
20260505114513 61 269 3.0 8.0 0.00 0.00 0.00 46 1011.0
20260505113009 61 262 0.0 6.0 0.00 0.00 0.00 47 1010.9
20260505111510 60 238 2.0 7.0 0.00 0.00 0.00 47 1010.6
20260505101555 59 248 1.0 9.0 0.00 0.00 0.00 48 1010.1
20260505100049 59 203 2.0 8.0 0.00 0.00 0.00 49 1010.1
20260505094555 59 231 2.0 8.0 0.00 0.00 0.00 49 1010.1
20260505093052 59 231 2.0 9.0 0.00 0.00 0.00 49 1009.9
20260505091541 59 282 2.0 6.0 0.00 0.00 0.00 49 1009.9
20260505090037 59 257 3.0 8.0 0.00 0.00 0.00 49 1009.8
20260505084536 59 221 2.0 7.0 0.00 0.00 0.00 49 1009.8
20260505083016 60 224 0.0 9.0 0.00 0.00 0.00 49 1009.7
20260505081514 60 276 1.0 9.0 0.00 0.00 0.00 49 1009.7
20260505080023 60 234 4.0 11.0 0.00 0.00 0.00 49 1009.5
20260505074509 60 248 3.0 7.0 0.00 0.00 0.00 51 1009.6
20260505073006 60 246 0.0 7.0 0.00 0.00 0.00 51 1009.4
20260505071503 59 234 2.0 7.0 0.00 0.00 0.00 52 1009.4
20260505070002 58 215 0.0 6.0 0.00 0.00 0.00 55 1009.4
20260505064559 56 230 0.0 1.0 0.00 0.00 0.00 57 1009.3
20260505063057 57 246 0.0 2.0 0.00 0.00 0.00 56 1009.2
20260505061613 57 224 0.0 2.0 0.00 0.00 0.00 56 1009.2
20260505060057 56 258 0.0 0.0 0.00 0.00 0.00 58 1009.3
20260505054555 56 257 0.0 0.0 0.00 0.00 0.00 57 1009.3
20260505053045 58 257 0.0 0.0 0.00 0.00 0.00 56 1009.3
20260505051542 58 217 0.0 0.0 0.00 0.00 0.00 56 1009.4
20260505041531 59 238 0.0 0.0 0.00 0.00 0.00 54 1009.3
20260505040037 60 238 0.0 0.0 0.00 0.00 0.00 52 1009.3
20260505034535 62 238 0.0 0.0 0.00 0.00 0.00 50 1009.6
20260505033022 63 254 0.0 0.0 0.00 0.00 0.00 48 1009.5
20260505031523 63 264 0.0 1.0 0.00 0.00 0.00 47 1009.6
20260505030020 64 219 0.0 1.0 0.00 0.00 0.00 45 1009.5
20260505024519 65 240 0.0 2.0 0.00 0.00 0.00 44 1009.5
20260505023016 66 264 0.0 4.0 0.00 0.00 0.00 42 1009.4
20260505021515 67 259 0.0 5.0 0.00 0.00 0.00 41 1009.3
20260505020015 68 236 0.0 7.0 0.00 0.00 0.00 39 1009.3
20260505014514 68 251 3.0 10.0 0.00 0.00 0.00 38 1009.2
20260505013007 69 226 0.0 7.0 0.00 0.00 0.00 36 1009.0
20260505011506 69 207 2.0 9.0 0.00 0.00 0.00 35 1008.9
20260505010005 70 265 0.0 4.0 0.00 0.00 0.00 33 1008.7
20260505004506 71 272 2.0 8.0 0.00 0.00 0.00 32 1008.6
20260505003059 71 264 2.0 7.0 0.00 0.00 0.00 31 1008.5
20260505001559 72 269 1.0 9.0 0.00 0.00 0.00 31 1008.5
20260505000107 72 255 3.0 7.0 0.00 0.00 0.00 30 1008.6
20260504234605 72 226 4.0 11.0 0.00 0.00 0.00 30 1008.4
20260504233049 73 239 3.0 13.0 0.00 0.00 0.00 29 1008.1
20260504231546 73 240 5.0 14.0 0.00 0.00 0.00 29 1008.1
20260504230044 74 217 8.0 15.0 0.00 0.00 0.00 27 1008.1
20260504224540 74 222 4.0 14.0 0.00 0.00 0.00 27 1008.0
20260504223037 75 226 4.0 16.0 0.00 0.00 0.00 26 1007.9
20260504221532 76 262 5.0 13.0 0.00 0.00 0.00 25 1007.9
20260504220042 76 258 8.0 16.0 0.00 0.00 0.00 25 1008.1
20260504214524 76 159 6.0 14.0 0.00 0.00 0.00 24 1008.2
20260504213020 76 246 6.0 16.0 0.00 0.00 0.00 24 1008.0
20260504211517 75 228 5.0 15.0 0.00 0.00 0.00 24 1008.1
20260504210016 76 222 9.0 15.0 0.00 0.00 0.00 22 1008.1
20260504204516 77 200 8.0 17.0 0.00 0.00 0.00 21 1008.1
20260504203012 76 217 5.0 12.0 0.00 0.00 0.00 22 1008.0
20260504201509 77 186 5.0 13.0 0.00 0.00 0.00 20 1008.2
20260504200007 76 244 6.0 14.0 0.00 0.00 0.00 21 1008.3
20260504194502 77 266 5.0 12.0 0.00 0.00 0.00 21 1008.6
20260504193113 76 253 6.0 14.0 0.00 0.00 0.00 21 1009.0
20260504191555 77 240 5.0 12.0 0.00 0.00 0.00 20 1009.0
20260504190056 77 255 3.0 10.0 0.00 0.00 0.00 23 1009.3
20260504184546 76 205 3.0 14.0 0.00 0.00 0.00 21 1009.6
20260504183054 75 291 5.0 11.0 0.00 0.00 0.00 22 1009.9
20260504181538 74 165 3.0 18.0 0.00 0.00 0.00 21 1010.1
20260504180054 74 226 5.0 14.0 0.00 0.00 0.00 22 1010.4
20260504174533 74 302 5.0 12.0 0.00 0.00 0.00 23 1010.6
20260504173027 73 192 7.0 13.0 0.00 0.00 0.00 22 1010.9
20260504171524 73 150 4.0 15.0 0.00 0.00 0.00 23 1011.0